STARLINK-3059, 49181

Orbit data source: Space-Track

STARLINK-3059, 49181 is a payload satellite owned by SpaceX/Seattle (US) in LEO that was launched on Tue, 14 Sep 2021 UTC via an FALCON 9 launch vehicle from the Air Force Western Test Range (AFWTR). Payload-class satellites include a variety of spacecraft equipped with specific instruments for various scientific and technological missions. These include communications satellites like Starlink; space stations such as the ISS; scientific satellites like the Hubble; Earth observation satellites from companies like Planet Labs, Umbra, and HawkEye 360; GPS; miniature CubeSats for education and research; and military/defense satellites.

Loading next visibility...
Identifier
49181, 2021-082BD
Orbit
LEO
Country
Flag of USUS
Related business
Manufacturer
SpaceX/Seattle
Mission
Operational Commercial Communications
Bus & Motor
STARLINK, Unknown motor
Mass
297 kg wet, ~275 kg dry
Launch date (UTC)
2021-09-14 (5 years ago)
Launch vehicle
FALCON 9
Launch site
Air Force Western Test Range (AFWTR)
Object type
Payload
Rocket body
Debris
Shape & HBR
Box + 1 Pan, 10.1 m
Radar Cross Section
13.562 m², Large (>1 m²)

Expand to show TLE details & history
Last TLE update: 13 hours ago

TLE from 13 hours ago
0 STARLINK-3059
1 49181U 21082BD  26125.41403977  .00001658  00000-0  14679-3 0  9997
2 49181  69.9997 151.4346 0003217 267.1571  92.9220 14.98317835255667
Epoch: 2026-05-05T09:56Z
TLE epoch observation values (Epoch: 2026-05-05T09:56:13.036Z)
Latitude
0.00001°
Longitude
139.09106°
Altitude
574.632 km
Speed
7.574 km/s
True Right ascension
10h 05m 44s
True Declination
0° 00' 00"
Sunlit
Object was in daylight at epoch
Visualization orbit readout
Latitude
Unknown
Longitude
Unknown
Altitude
Unknown
Speed
Unknown
Apparent Right ascension
Unknown
Apparent Declination
Unknown
Sunlit
N/A
Visualization observer readout
Local Sidereal Time
07:13:24
Azimuth
Unknown
Elevation
Unknown
Doppler factor
Unknown
Orbital elements
Apogee altitude
572.277 km
Perigee altitude
567.807 km
Semi-major axis
6,948.179 km
Eccentricity
0.00032
Inclination
69.9997°
RAAN
151.4346°
Arg. of periapsis
267.1571°
True anomaly
92.95882°
Mean anomaly
92.922°
Eccentric anomaly
92.94041°
Mean motion
3.74746 °/min
Orbital period
96.07 mins
BSTAR
0.00014679
Loading maneuver chart data...
Computing Atmospheric mass density...
Loading historical data...
Loading historical data...
Loading historical data...
Loading historical data...
Loading historical data...
Loading historical data...
Loading historical data...

Documentation

Showing up to 5 results
|